GW0503 Weather Reports


Display with metric or nautical units.
time (UTC)temp
F
wind
direction
speed
MPH
gust
MPH
rain 1hr
in
rain 24hr
in
rain mn
in
humidity
%
barometer
mb
20260508023059 49 60 0.0 5.0 0.00 1.23 1.23 99 1002.1
20260508021556 49 253 1.0 4.0 0.00 1.23 1.23 99 1002.1
20260508020057 49 112 2.0 6.0 0.00 1.23 1.23 99 1002.2
20260508014557 49 125 0.0 3.0 0.00 1.23 1.23 99 1001.9
20260508013059 50 138 1.0 3.0 0.00 1.23 1.23 99 1001.7
20260508011556 49 126 1.0 4.0 0.00 1.23 1.23 99 1001.6
20260508010057 50 294 0.0 2.0 0.00 1.23 1.23 99 1001.6
20260508004610 50 0 1.0 3.0 0.00 1.23 1.23 99 1001.8
20260508003056 50 276 1.0 4.0 0.00 1.23 1.23 99 1002.1
20260508001557 50 145 2.0 8.0 0.00 1.23 1.23 99 1002.2
20260508000057 50 137 3.0 7.0 0.00 1.23 1.23 99 1002.2
20260507234600 50 147 2.0 4.0 0.00 1.23 1.23 99 1002.3
20260507233055 51 173 1.0 4.0 0.00 1.23 1.23 99 1002.3
20260507231650 51 173 1.0 8.0 0.00 1.23 1.23 99 1002.2
20260507230105 51 162 5.0 15.0 0.00 1.23 1.23 99 1002.3
20260507224556 51 147 5.0 12.0 0.00 1.23 1.23 99 1002.3
20260507223100 51 151 7.0 12.0 0.00 1.23 1.23 98 1002.3
20260507221557 51 146 3.0 10.0 0.00 1.23 1.23 98 1002.4
20260507220057 51 124 5.0 11.0 0.01 1.23 1.23 99 1002.7
20260507214618 51 101 5.0 12.0 0.01 1.23 1.23 98 1002.8
20260507213108 51 149 7.0 12.0 0.02 1.23 1.23 99 1003.0
20260507211620 51 159 5.0 12.0 0.05 1.23 1.23 99 1002.7
20260507210057 51 177 4.0 9.0 0.09 1.22 1.22 98 1002.4
20260507204607 51 128 6.0 12.0 0.17 1.22 1.22 98 1002.2
20260507203101 51 136 5.0 12.0 0.25 1.21 1.21 98 1002.8
20260507201608 51 82 6.0 15.0 0.35 1.17 1.17 98 1003.1
20260507200059 51 164 3.0 7.0 0.41 1.13 1.13 98 1003.4
20260507194633 51 117 4.0 11.0 0.45 1.04 1.04 98 1004.1
20260507193056 52 148 7.0 15.0 0.49 0.96 0.96 97 1004.6
20260507191601 52 145 6.0 11.0 0.51 0.83 0.83 97 1004.9
20260507190057 52 149 10.0 22.0 0.52 0.72 0.72 96 1004.8
20260507184607 53 187 12.0 25.0 0.46 0.60 0.60 96 1004.9
20260507183101 53 209 11.0 20.0 0.33 0.47 0.47 96 1005.3
20260507181556 54 180 11.0 20.0 0.20 0.32 0.32 96 1005.5
20260507180106 55 195 8.0 19.0 0.07 0.18 0.18 96 1005.0
20260507174557 54 183 5.0 16.0 0.03 0.14 0.14 96 1004.8
20260507173057 54 191 7.0 16.0 0.03 0.14 0.14 96 1004.9
20260507171600 55 184 4.0 10.0 0.01 0.12 0.12 95 1005.2
20260507170057 54 145 5.0 18.0 0.00 0.11 0.11 94 1005.8
20260507164607 55 168 10.0 25.0 0.00 0.11 0.11 92 1006.0
20260507163103 55 162 11.0 20.0 0.00 0.11 0.11 92 1006.5
20260507161559 55 195 10.0 28.0 0.00 0.11 0.11 91 1007.1
20260507160058 57 176 14.0 24.0 0.00 0.11 0.11 90 1007.1
20260507154605 57 171 9.0 30.0 0.00 0.11 0.11 90 1007.6
20260507153058 57 151 13.0 24.0 0.00 0.11 0.11 91 1007.6
20260507151557 57 150 8.0 17.0 0.00 0.11 0.11 92 1007.9
20260507150059 56 139 8.0 21.0 0.00 0.11 0.11 92 1008.2
20260507144559 56 165 11.0 24.0 0.00 0.11 0.11 92 1008.4
20260507143110 56 191 15.0 28.0 0.00 0.11 0.11 93 1008.6
20260507141558 57 157 9.0 30.0 0.00 0.11 0.11 93 1009.0
20260507140100 56 184 10.0 27.0 0.00 0.11 0.11 94 1009.5
20260507134559 56 145 17.0 33.0 0.00 0.11 0.11 94 1009.3
20260507133057 56 179 15.0 27.0 0.00 0.11 0.11 94 1009.6
20260507131612 56 135 11.0 24.0 0.00 0.11 0.11 94 1009.7
20260507130100 56 197 16.0 27.0 0.00 0.11 0.11 96 1010.2
20260507124558 55 173 12.0 20.0 0.00 0.11 0.11 97 1009.6
20260507123056 55 180 14.0 29.0 0.02 0.11 0.11 98 1010.1
20260507121557 54 170 9.0 15.0 0.05 0.11 0.11 98 1010.4
20260507120056 53 147 7.0 16.0 0.05 0.11 0.11 98 1010.5
20260507114558 53 106 6.0 15.0 0.05 0.11 0.11 98 1011.2
20260507113100 53 160 8.0 17.0 0.04 0.09 0.09 98 1011.6
20260507111556 53 118 5.0 12.0 0.03 0.06 0.06 98 1011.7
20260507110057 53 147 7.0 14.0 0.03 0.06 0.06 98 1011.7
20260507104556 53 105 5.0 10.0 0.03 0.06 0.06 98 1011.5
20260507103058 53 191 5.0 11.0 0.02 0.05 0.05 99 1012.2
20260507101558 52 189 5.0 12.0 0.01 0.03 0.03 99 1012.5
20260507100056 52 159 1.0 4.0 0.01 0.03 0.03 99 1012.4
20260507094558 52 139 6.0 11.0 0.01 0.03 0.03 99 1012.3
20260507093101 52 170 5.0 16.0 0.01 0.03 0.03 99 1012.6
20260507091558 51 164 7.0 16.0 0.00 0.02 0.02 99 1013.1
20260507090057 51 0 0.0 2.0 0.00 0.02 0.02 98 1013.0
20260507084556 51 139 2.0 8.0 0.00 0.02 0.02 98 1012.8
20260507083101 51 188 2.0 10.0 0.00 0.02 0.02 99 1012.7
20260507081556 51 162 3.0 8.0 0.00 0.02 0.02 98 1012.7
20260507080113 51 198 2.0 5.0 0.00 0.02 0.02 98 1013.1
20260507074555 51 173 1.0 10.0 0.00 0.02 0.02 98 1013.3
20260507073057 51 172 4.0 9.0 0.00 0.02 0.02 98 1013.6
20260507071610 51 130 4.0 7.0 0.00 0.02 0.02 98 1013.8
20260507070057 51 156 6.0 11.0 0.01 0.02 0.02 98 1013.8
20260507064557 51 142 7.0 14.0 0.02 0.02 0.02 97 1013.9
20260507063058 51 124 5.0 12.0 0.02 0.02 0.02 97 1014.1
20260507061600 51 171 5.0 13.0 0.02 0.02 0.02 97 1014.4
20260507060058 51 168 5.0 11.0 0.01 0.01 0.01 96 1014.4
20260507054556 51 130 4.0 9.0 0.00 0.00 0.00 96 1014.8
20260507053127 51 97 5.0 8.0 0.00 0.00 0.00 96 1015.0
20260507051605 52 130 3.0 9.0 0.00 0.00 0.00 95 1015.2
20260507050108 52 111 3.0 8.0 0.00 0.00 0.00 95 1015.5
20260507044559 51 142 4.0 9.0 0.00 0.00 0.00 96 1015.9
20260507043057 51 149 4.0 9.0 0.00 0.00 0.00 96 1016.1
20260507041558 51 108 4.0 9.0 0.00 0.00 0.00 95 1016.6
20260507034556 51 121 6.0 11.0 0.00 0.00 0.00 95 1017.0
20260507033101 51 130 4.0 10.0 0.00 0.00 0.00 94 1017.1
20260507031558 51 101 5.0 9.0 0.00 0.00 0.00 93 1017.3
20260507030057 52 116 5.0 11.0 0.00 0.00 0.00 93 1017.4
20260507024604 52 162 3.0 11.0 0.00 0.00 0.00 93 1017.4